Tracking 26257 objects as of 4-Oct-2022
HD Live streaming from Space Station
objects crossing your sky now

HINCUBE

Track HINCUBE now!
10-day predictions
HINCUBE is classified as:


NORAD ID: 39445
Int'l Code: 2013-066AF
Perigee: 584.8 km
Apogee: 665.2 km
Inclination: 97.6 °
Period: 97.1 minutes
Semi major axis: 6996 km
RCS: Unknown
Launch date: November 21, 2013
Source: Norway (NOR)
Launch site: Orenburg, Russia (OREN)

Uplink (MHz):
Downlink (MHz): 437.305
Beacon (MHz):
Mode:
Call sign:
Status: Inactive

aabbcc
Your satellite tracking list
Your tracking list is empty




NASA's NSSDC Master Catalog

Two Line Element Set (TLE):
1 39445U 13066AF  22276.42896422  .00005147  00000-0  61196-3 0  9990
2 39445  97.6384 245.3694 0057444  41.7304 318.8270 14.83632746477472
Source of the keplerian elements: AFSPC